Location: Bettgenhausen
(50.6463°N, 7.5681°E)
Time: 00:57:59
(UTC+00:00)

CZ-2C R/B - Pass Details

Date: 27 February 2020
Orbit: 703 x 909 km, 98.1° (Epoch: 04 April)

Event Time Altitude Azimuth Distance (km) Brightness Sun altitude
Rises 17:39:02 0° 123° (ESE) 3,522 5.9 -5.9°
Reaches altitude 10° 17:41:52 10° 111° (ESE) 2,571 5.2 -6.3°
Maximum altitude 17:46:23 25° 59° (ENE) 1,724 4.3 -7.1°
Drops below altitude 10° 17:50:47 10° 7° (N) 2,506 5.6 -7.8°
Sets 17:53:31 0° 354° (N) 3,414 6.4 -8.2°
